Regional Weather Roundup
Issued by NWS Newport/Morehead, NC

Current Version | Previous Version | Text Only | Print | Product List | Glossary On
Versions: 1 2 3 4 5 6 7 8 9 10 11 12 13 14 15 16 17 18 19 20 21 22 23 24 25 26 27 28 29 30 31 32 33 34 35 36 37 38 39 40 41 42 43 44 45 46 47 48 49 50
030
ASUS42 KMHX 210225
RWRMHX
WEATHER ROUNDUP FOR EASTERN NORTH CAROLINA
NATIONAL WEATHER SERVICE NEWPORT/MOREHEAD CITY NC
900 PM EST MON FEB 20 2017

NOTE: "FAIR" INDICATES FEW OR NO CLOUDS BELOW 12,000 FEET
WITH NO SIGNIFICANT WEATHER AND/OR OBSTRUCTIONS TO VISIBILITY

NCZ015>017-031-032-045>047-102-103-210300-
NORTH COAST

CITY           SKY/WX    TMP DP  RH WIND       PRES   REMARKS
EDENTON        CLEAR     49  42  76 E5        30.25R
ELIZABETH CITY CLEAR     45  39  79 E6        30.25R
KITTY HAWK     NOT AVBL
MANTEO         CLEAR     48  43  84 E12       30.25R

$$

NCZ045>047-081-094-103-104-210300-
CENTRAL COAST

CITY           SKY/WX    TMP DP  RH WIND       PRES   REMARKS
FRISCO         CLEAR     52  43  71 NE6       30.23R

$$

NCZ095-097-098-100-101-210300-
SOUTHERN COAST

CITY           SKY/WX    TMP DP  RH WIND       PRES   REMARKS
BEAUFORT       CLOUDY    53  43  68 NE6       30.21S
CEDAR ISLAND   NOT AVBL
JACKSONVILLE   PTCLDY    53  49  86 SE3       30.21R
PINEY ISLAND   CLEAR    N/A N/A N/A E12       30.22R
WILMINGTON     MOCLDY    55  51  86 E3        30.20R


$$

NCZ011>013-027>030-043-044-078>080-089-090>093-098-210300-
COASTAL PLAIN

CITY           SKY/WX    TMP DP  RH WIND       PRES   REMARKS
AHOSKIE          N/A     50  40  67 NE3       30.24R
CLINTON        MOCLDY    56  44  63 CALM      30.21R
ELIZABETHTOWN  MOCLDY    58  47  67 SE3       30.20S
GOLDSBORO      CLOUDY    54  42  63 E3        30.18S
GREENVILLE     PTCLDY    54  41  62 E5        30.23R
HAVELOCK       PTCLDY    51  40  65 E3        30.22S
KENANSVILLE    NOT AVBL
KINSTON        MOCLDY    57  41  54 CALM      30.22R
NEW BERN       PTCLDY    52  43  71 E5        30.23R
RICHLANDS      MOCLDY    50  46  86 CALM      30.22R
ROCKY MOUNT    MOCLDY    52  43  71 CALM      30.20S
WASHINGTON     PTCLDY    52  39  63 E3        30.23R
WHITEVILLE     CLOUDY    58  47  65 E3        30.19S

$$

AMZ130-135-150-152-154-156-158-170-250-252-270-ANZ085-086-088-633-658-670-210300-
MARINE OBSERVATIONS

STATION/POSITION TIME  TEMP    WIND        PRES    WAVE   SWELL
                       AIR SEA DIR/SP/G            HT/PER HT/PER
                 (UTC) (F)     (DEG/KT/KT) (MB)    (FT/S) (FT/S)
CHESAPEAKE LIGHT NOT AVBL
64 E VA BEACH    0150   52 54   40/ 12/ 14 1024.3    3/ 6   2/ 6
DUCK             0200   49 49   50/ 12/ 13 1023.7
2 E DUCK         0200      49                N/A     2/ 5
OREGON INLET     0200   49 51   20/  8/ 10 1023.9
13E OREGON INLT  NOT AVBL
HATTERAS CG      0200   53 57   40/  7/ 11 1023.2
DIAMOND BUOY     0150   59 69   40/ 17/ 19 1023.2    4/ 5   2/10
CAPE LOOKOUT     0200   58      60/ 13/ 15 1022.7
BEAUFORT LAB     0200   54 54   60/  6/  9 1021.9
30 SE NEW RVR IN 0208   62      90/ 16/ 19 1022.8
30 SE NEW RVR IN 0213      65                N/A     4/ 6
27 SE WRIGHTSVLE 0208   62 62   90/ 14/ 19 1021.7
5 SE WRIGHTSVLE  0208   58 56   90/  8/ 12 1022.7
225 S CAPE HAT   0150   69 71   20/ 14/ 17 1020.3    5/ 6   2/ 9
41 SE CHARLESTON 0150   67 67   50/  6/  6 1021.7    2/ 4   2/ 4

$$




USA.gov is the U.S. government's official web portal to all federal, state and local government web resources and services.